N9CQS-13 Weather Reports


time (UTC)temp
F
wind
direction
speed
knots
gust
knots
rain 1hr
in
rain 24hr
in
rain mn
in
humidity
%
barometer
mb
20260504014132 59 183 4.3 7.0 0.00 0.00 0.00 60 1009.3
20260504013132 60 178 3.5 5.2 0.00 0.00 0.00 60 1009.2
20260504012131 60 186 3.5 5.2 0.00 0.00 0.00 59 1009.0
20260504011132 61 183 5.2 5.2 0.00 0.00 0.00 58 1009.1
20260504010132 61 157 3.5 4.3 0.00 0.00 0.00 57 1009.2
20260504005131 62 194 4.3 6.1 0.00 0.00 0.00 56 1009.1
20260504004132 62 180 4.3 5.2 0.00 0.00 0.00 56 1009.0
20260504003131 63 186 4.3 5.2 0.00 0.00 0.00 55 1009.0
20260504002132 63 176 4.3 6.1 0.00 0.00 0.00 54 1009.0
20260504001131 64 180 5.2 5.2 0.00 0.00 0.00 53 1009.0
20260504000131 64 197 5.2 6.1 0.00 0.00 0.00 53 1008.9
20260503235132 65 202 6.1 10.4 0.00 0.00 0.00 50 1008.9
20260503234132 65 186 7.0 9.6 0.00 0.00 0.00 49 1009.0
20260503233131 65 206 7.0 8.7 0.00 0.00 0.00 50 1009.1
20260503232132 65 197 6.1 7.8 0.00 0.00 0.00 52 1009.2
20260503231132 65 192 7.0 7.0 0.00 0.00 0.00 51 1009.2
20260503230132 65 173 7.0 11.3 0.00 0.00 0.00 51 1009.2
20260503225132 64 201 7.0 13.9 0.00 0.00 0.00 51 1009.3
20260503224131 64 191 7.0 10.4 0.00 0.00 0.00 51 1009.5
20260503223131 65 188 7.8 10.4 0.00 0.00 0.00 50 1009.2
20260503221132 63 184 8.7 8.7 0.00 0.00 0.00 53 1009.5
20260503220131 63 160 8.7 10.4 0.00 0.00 0.00 53 1009.7
20260503214132 63 185 8.7 11.3 0.00 0.00 0.00 51 1009.7
20260503213132 62 193 8.7 11.3 0.00 0.00 0.00 54 1010.3
20260503211131 63 182 8.7 8.7 0.00 0.00 0.00 52 1010.4
20260503210131 62 181 8.7 13.0 0.00 0.00 0.00 52 1010.6
20260503204131 62 186 7.8 14.8 0.00 0.00 0.00 53 1010.4
20260503203131 61 149 7.0 11.3 0.00 0.00 0.00 54 1011.0
20260503202131 61 200 8.7 13.0 0.00 0.00 0.00 53 1011.4
20260503201131 61 180 7.8 7.8 0.00 0.00 0.00 52 1011.7
20260503200132 61 176 7.8 12.2 0.00 0.00 0.00 52 1011.7
20260503194131 62 189 7.0 10.4 0.00 0.00 0.00 51 1012.5
20260503193131 61 198 7.0 13.0 0.00 0.00 0.00 51 1013.4
20260503192131 61 179 7.0 7.8 0.00 0.00 0.00 51 1013.6
20260503191131 62 197 7.0 7.0 0.00 0.00 0.00 52 1013.7
20260503190131 60 180 7.0 11.3 0.00 0.00 0.00 53 1014.3
20260503185131 60 187 6.1 8.7 0.00 0.00 0.00 51 1014.6
20260503184131 60 190 7.0 10.4 0.00 0.00 0.00 50 1014.6
20260503183131 60 176 7.0 9.6 0.00 0.00 0.00 49 1014.5
20260503180131 62 178 6.1 7.8 0.00 0.00 0.00 45 1014.6
20260503175132 64 192 6.1 11.3 0.00 0.00 0.00 42 1014.5
20260503174131 62 115 6.1 9.6 0.00 0.00 0.00 45 1015.1
20260503173131 62 166 7.8 10.4 0.00 0.00 0.00 45 1015.4
20260503171131 62 178 7.0 7.0 0.00 0.00 0.00 46 1015.4
20260503170131 62 190 6.1 7.0 0.00 0.00 0.00 47 1015.9
20260503160132 61 200 7.8 11.3 0.00 0.00 0.00 51 1016.9
20260503150131 55 201 6.1 8.7 0.00 0.00 0.00 59 1018.0
20260503140132 53 180 7.0 7.8 0.00 0.00 0.00 60 1018.3
20260503131132 49 207 5.2 5.2 0.00 0.00 0.00 71 1019.0
20260503130132 48 203 5.2 7.0 0.00 0.00 0.00 72 1019.0
20260503120132 42 188 2.6 4.3 0.00 0.00 0.00 76 1019.0
20260503110132 41 188 2.6 4.3 0.00 0.00 0.00 73 1018.9
20260503100132 42 170 2.6 2.6 0.00 0.00 0.00 71 1019.1
20260503090132 42 188 2.6 3.5 0.00 0.00 0.00 70 1019.2
20260503081132 42 172 1.7 1.7 0.00 0.00 0.00 68 1019.2
20260503080132 42 164 1.7 2.6 0.00 0.00 0.00 67 1019.2
20260503072132 42 174 1.7 1.7 0.00 0.00 0.00 66 1019.5
20260503071131 42 178 1.7 1.7 0.00 0.00 0.00 65 1019.4
20260503070131 42 182 1.7 2.6 0.00 0.00 0.00 65 1019.4
20260503060133 43 167 1.7 2.6 0.00 0.00 0.00 62 1019.7
20260503054132 44 172 1.7 1.7 0.00 0.00 0.00 61 1019.8
20260503053131 44 172 1.7 2.6 0.00 0.00 0.00 61 1019.8
20260503052133 44 172 0.9 1.7 0.00 0.00 0.00 62 1019.8
20260503051131 44 175 0.9 0.9 0.00 0.00 0.00 62 1019.8
20260503050132 44 173 0.9 0.9 0.00 0.00 0.00 61 1019.8
20260503044131 45 180 0.9 1.7 0.00 0.00 0.00 59 1019.8
20260503043131 45 176 0.9 0.9 0.00 0.00 0.00 59 1019.8
20260503042132 45 180 0.9 1.7 0.00 0.00 0.00 58 1019.7
20260503041131 45 165 0.9 0.9 0.00 0.00 0.00 58 1019.7
20260503040131 45 169 0.9 1.7 0.00 0.00 0.00 57 1019.8
20260503035131 45 180 0.9 1.7 0.00 0.00 0.00 58 1019.9
20260503025131 45 180 0.0 0.9 0.00 0.00 0.00 59 1020.0